sat.trackr.live / text

‹ back to catalog

NAVSTAR 43 (USA 132)

NORAD 24876 · 1997-035A

PAYLOAD ACTIVE UNKNOWN

§ Identity

Operator
Country
US
Launch date
1997-07-23
Launch site
AFETR
Launch vehicle
Mass (kg)
RCS (m²)
3.16

External: N2YO · Heavens-Above · Gunter

§ Orbital elements

Epoch: 2026-05-24T06:28:24.673728Z

Period
717.98 min
Inclination
55.9830°
Eccentricity
0.0101278
Mean motion
2.00563823 rev/d
Perigee alt
19,913.2 km
Apogee alt
20,451.2 km
Semi-major
26,560.3 km
B*
0.0000e+0
RAAN
99.5100°
Arg perigee
56.5032°
Mean anomaly
304.4311°
Rev number
21,147

§ Raw data

NAVSTAR 43 (USA 132)1 24876U 97035A   26144.26973002  .00000023  00000+0  00000+0 0  99902 24876  55.9830  99.5100 0101278  56.5032 304.4311  2.00563823211473

JSON: /api/v1/satellites/24876 · /tle

For live sub-satellite position, see the globe view (requires WebGL).

§ Visibility from observer

Set your observer location to see the next 7 days of passes ≥ 10°. The values pass through the URL so the page stays shareable.

No JS? Fill the form by hand. The geolocation button needs JavaScript.